Location: Chervonnoye
(48.6000°N, 34.4000°E)
Time: 15:57:03
(UTC+00:00)

USA 267 - Pass Details

Date: 23 November 2020
Orbit: 1100 x 1107 km, 123.0° (Epoch: 18 January)

Event Time Altitude Azimuth Distance (km) Brightness Sun altitude
Exits shadow 14:30:51 - 100° (E) 3,938 5.7 -6.2°
Rises 14:30:54 0° 100° (E) 3,915 5.6 -6.2°
Reaches altitude 10° 14:33:25 10° 97° (E) 2,960 5.0 -6.6°
Maximum altitude 14:39:46 57° 21° (NNE) 1,281 3.4 -7.5°
Drops below altitude 10° 14:46:10 10° 305° (NW) 2,971 6.0 -8.5°
Sets 14:48:41 0° 301° (WNW) 3,931 6.8 -8.9°
